{"data":{"norad_id":58970,"intl_designator":"2024-031F","name":"STARLINK-31368","alt_names":[],"object_type":"PAYLOAD","status":"ACTIVE","operator":null,"country":"US","launch_date":"2024-02-15","launch_site_code":"AFWTR","launch_vehicle":null,"mission":null,"orbit_class":"UNKNOWN","rcs_meters":null,"size_class":null,"mass_kg":null,"dimensions":null,"purposes":["comms"],"wikipedia_slug":null,"has_3d_model":false,"image_url":null,"decayed_at":null,"tle_current":{"epoch":"2026-09-19T22:58:05.106720Z","epoch_age_seconds":202366,"freshness":"STALE","line1":"1 58970U 24031F   26262.95700355  .00002057  00000+0  71983-4 0  9996","line2":"2 58970  53.1594 112.4162 0001064 100.2076 259.9047 15.34405512146302","mean_motion":15.34405512,"eccentricity":0.0001064,"inclination_deg":53.1594,"raan_deg":112.4162,"arg_perigee_deg":100.2076,"mean_anomaly_deg":259.9047,"bstar":7.1983e-5,"rev_number":14630,"period_min":93.847420954781,"perigee_km":461.95899377212,"apogee_km":463.41472108898,"semimajor_km":6840.8238574305,"source":"CELESTRAK","updated_at":"2026-09-21T09:00:34.019530Z"}}}